Regional Weather Roundup
Issued by NWS

Home | Current Version | Previous Version | Text Only | Print | Product List | Glossary Off
Versions: 1 2 3 4 5 6 7 8 9 10 11 12 13 14 15 16 17 18 19 20 21 22 23 24 25 26 27 28 29 30 31 32 33 34 35 36 37 38 39 40 41 42 43 44 45 46 47 48 49 50

000
ASUS44 KMEG 030010
RWRTN
TENNESSEE HOURLY STATE WEATHER ROUNDUP
NATIONAL WEATHER SERVICE MEMPHIS TN
700 PM CDT THU JUL 02 2015

TNZ002-004-019-021-049-052-054-088>092-030100-
WEST TENNESSEE

CITY           SKY/WX    TMP DP  RH WIND       PRES   REMARKS
MEMPHIS INTL   CLOUDY    85  70  60 SW14G22   29.85F
NWS MEMPHIS      N/A     85 N/A N/A MISG        N/A
JACKSON        CLOUDY    78  71  79 SW7       29.85F
DYERSBURG        N/A    N/A N/A N/A MISG        N/A
PARIS          PTSUNNY   75  72  88 S8        29.86S
LEXINGTON      CLOUDY    75  72  88 S6        29.87R
$$

TNZ008-025-027-028-033-062-065-066-030100-
NORTH MIDDLE TENNESSEE

CITY           SKY/WX    TMP DP  RH WIND       PRES   REMARKS
NASHVILLE      RAIN      77  74  90 S6        29.86R
CLARKSVILLE    CLOUDY    77  73  87 S3        29.83F
SMYRNA         PTSUNNY   80  73  79 SW5       29.86S
COOKEVILLE     PTSUNNY   77  73  88 SW3       29.89R
CROSSVILLE     CLOUDY    74  68  81 S3        29.95R
$$

TNZ061-075-076-078-094-096-097-030100-
SOUTH MIDDLE TENNESSEE

CITY           SKY/WX    TMP DP  RH WIND       PRES   REMARKS
FAYETTEVILLE   PTSUNNY   77  66  69 W12       29.92R
TULLAHOMA      MOSUNNY   75  68  78 SW9       29.92R
WINCHESTER     SUNNY     79  68  69 SW9       29.91S
MCMINNVILLE    CLOUDY    77  73  88 SW5       29.91R
COLUMBIA       PTSUNNY   79  72  78 SW8       29.87S
SHELBYVILLE    PTSUNNY  N/A N/A N/A MISG        N/A
$$

TNZ017-018-042-046-047-030100-
NORTHEAST TENNESSEE

CITY           SKY/WX    TMP DP  RH WIND       PRES   REMARKS
TRI CITIES     CLOUDY    73  65  75 SW7       29.95S
ELIZABETHTON   MOCLDY    72  64  78 CALM      29.96S
$$

TNZ012-013-036-069-073-074-030100-
CENTRAL EAST TENNESSEE

CITY           SKY/WX    TMP DP  RH WIND       PRES   REMARKS
KNOXVILLE      CLOUDY    77  68  73 S8        29.90F
OAK RIDGE      MOCLDY    77  68  73 S3        29.91F
GATLINBURG     PTCLDY    77  66  69 W3        29.91F
MORRISTOWN     PTCLDY    73  70  88 CALM      29.94S
$$

TNZ083-085-099-030100-
SOUTHEAST TENNESSEE

CITY           SKY/WX    TMP DP  RH WIND       PRES   REMARKS
CHATTANOOGA    TSTM      73  71  93 S12G21    29.90F VSB 1/2
$$

SKY/WX REPORTED AS FAIR MEANS FEW OR NO CLOUDS BELOW
12 THOUSAND FEET.



USA.gov is the U.S. government's official web portal to all federal, state and local government web resources and services.